Regional Weather Roundup
Issued by NWS

Home | Current Version | Previous Version | Text Only | Print | Product List | Glossary On
Versions: 1 2 3 4 5 6 7 8 9 10 11 12 13 14 15 16 17 18 19 20 21 22 23 24 25 26 27 28 29 30 31 32 33 34 35 36 37 38 39 40 41 42 43 44 45 46 47 48 49 50
000
ASHW40 PHFO 312210
RWRHI

WEATHER ROUNDUP FOR HAWAII
NATIONAL WEATHER SERVICE HONOLULU HI
1200 PM HST FRI JUL 31 2015

THIS IS AN AUTOMATED REPORT THAT HAS NOT BEEN QUALITY CONTROLLED.

NOTE..."FAIR" INDICATES FEW OR NO CLOUDS BELOW 12,000 FEET WITH NO
SIGNIFICANT WEATHER AND/OR OBSTRUCTIONS TO VISIBILITY.

* - THESE SITES REPORT LIMITED FIELDS

HIZ001>004-312300-
KAUAI-NIIHAU-

CITY           SKY/WX    TMP DP  RH WIND       PRES   REMARKS
LIHUE APT      MOSUNNY   86  72  62 NE16      30.04S HX  92
PORT ALLEN*    NOT AVBL
POIPU*           N/A     86 N/A N/A NE10G21     N/A
PRINCEVILLE*     N/A     82 N/A N/A MISG        N/A
KOKOLE POINT*  NOT AVBL
MOLOAA DAIRY*  NOT AVBL
WAIMEA HTS*    NOT AVBL
PUU OPAE*      NOT AVBL
PUU LUA*       NOT AVBL
MAKAHA RIDGE*  NOT AVBL
$$

HIZ005>011-312300-
OAHU-

CITY           SKY/WX    TMP DP  RH WIND       PRES   REMARKS
HONOLULU       MOSUNNY   89  68  49 NE21G32   29.98F HX  93
KALAELOA       MOSUNNY   90  67  46 NE13G20   29.99F HX  93
KANEOHE MCB    MOSUNNY   85  72  65 NE12G18   29.98F HX  91
WHEELER FIELD  MOSUNNY   86  66  51 E12G23    30.03F
BELLOWS*       NOT AVBL
KAHUKU*        NOT AVBL
WHEELER*       NOT AVBL
WAIANAE HARBOR NOT AVBL
DILLINGHAM*    NOT AVBL
KAHUKU TRN*      N/A     75  61  60 E12G26      N/A
KAWAILOA*      NOT AVBL
KII*             N/A     84  75  74 E16         N/A  HX  92
MAKUA RANGE*     N/A     91  64  40 SE10G26     N/A  HX  93
OAHU FOREST NW NOT AVBL
SCHOFIELD BRK*   N/A     72  57  60 MISG        N/A
SCHOFIELD S*   NOT AVBL
WAIANAE VLY*   NOT AVBL
KUAOKALA*      NOT AVBL
HONOULIUULI*   NOT AVBL
MOKUOLOE IS*     N/A    N/A N/A N/A MISG        N/A
PALEHUA*       NOT AVBL
WAIAWA PHB*    NOT AVBL
$$

HIZ012>013-312300-
MOLOKAI-

CITY           SKY/WX    TMP DP  RH WIND       PRES   REMARKS
MOLOKAI AIRPT  MOSUNNY   85  69  58 NE17G29   29.99F
KALAUPAPA      NOT AVBL
MAKAPULAPAI*   NOT AVBL
MOLOKAI 1*     NOT AVBL
PUU ALII*      NOT AVBL
$$

HIZ016-312300-
KAHOOLAWE-

CITY           SKY/WX    TMP DP  RH WIND       PRES   REMARKS
KAHOOLAWE*     NOT AVBL
HAKIOAWA*      NOT AVBL
HONOKANAIA*      N/A     88  69  53 NE17G36   29.99S HX  92
KANELOA*         N/A     84  72  65 NE21G38   30.04S
KEALIALALO*    NOT AVBL
LUA MAKIKA*    NOT AVBL
$$

HIZ014>015-312300-
LANAI-

CITY           SKY/WX    TMP DP  RH WIND       PRES   REMARKS
LANAI CITY     FAIR      82  69  64 NE20      30.03F
LANAI 1*       NOT AVBL
$$

HIZ017>028-312300-
MAUI-

CITY           SKY/WX    TMP DP  RH WIND       PRES   REMARKS
KAHULUI        MOSUNNY   89  71  55 NE24G37   29.97F HX  95
KAPALUA-W MAUI MOSUNNY   84  70  61 NE17G29   29.99F
HANA AIRPORT   PTSUNNY   84  73  70 E5        30.04S HX  91
HANA*          NOT AVBL
HALEAKALA SUMM NOT AVBL
MAALAEA BAY*   NOT AVBL
HALEAKALA*     NOT AVBL
KAUPO GAP*     NOT AVBL
KULA 1*        NOT AVBL
$$

HIZ023>026-312300-
BIG ISLAND OF HAWAII COAST AND LOWER SLOPES-

CITY           SKY/WX    TMP DP  RH WIND       PRES   REMARKS
KAILUA KONA    PTSUNNY   87  73  62 SW12      29.94R HX  94
HILO           MOSUNNY   85  73  67 NE7       30.00F HX  91
HONOKAA*       NOT AVBL
KAWAIHAE MWT*  NOT AVBL
KAWAIHAE*        N/A     82 N/A N/A SW18        N/A
SOUTH POINT*   NOT AVBL
UPOLU AIRPORT* NOT AVBL
KAMUELA*       PTCLDY    81  64  57 NE24      30.06F
HAKALAU*         N/A     66  56  71 E6          N/A
KALOKO-HONOKO* NOT AVBL
PALI 2*          N/A     82  61  47 N18G31      N/A
KEALAKOMO*       N/A     86  70  58 E21G31      N/A  HX  90
KAUPULEHU*     NOT AVBL
KAPAPALA*      NOT AVBL
LOWER KAHUKU*  NOT AVBL
PUHE CS*       NOT AVBL
PUHO CS*       NOT AVBL
PTA KEAMUKU*     N/A     81  63  54 CALM        N/A
WAIKOLOA*      NOT AVBL
$$

HIZ027>028-312300-
BIG ISLAND OF HAWAII INTERIOR AND SUMMMITS-

CITY           SKY/WX    TMP DP  RH WIND       PRES   REMARKS
BRADSHAW FIELD MOSUNNY   73  54  50 SW7G14    30.32S
MK VISITOR CEN NOT AVBL
MAUNA KEA*     NOT AVBL
MAUNA LOA*       N/A     63  14  15 MISG        N/A
MAUNA LOA 1*   NOT AVBL
PTA KIPUKA*      N/A     73  57  56 NW9G16      N/A
PTA RANGE 17*  NOT AVBL
PTA WEST*        N/A    N/A N/A N/A W13G24      N/A
NENE CABIN*    NOT AVBL
AHUMOA*        NOT AVBL
PTA PORTABLE*  NOT AVBL
PUU MALI*        N/A    N/A N/A N/A E17G28      N/A
$$

HIC003-312300-
NORTHWEST ISLANDS-

CITY           SKY/WX    TMP DP  RH WIND       PRES   REMARKS
MIDWAY ISLAND  PTSUNNY   82  73  74 E21       30.04R
MIDWAY NOS*    NOT AVBL
FRENCH FRIGATE NOT AVBL
$$

PHZ110>124-180-312300-
BUOY REPORTS

STATION/POSITION TIME  TEMP    WIND        PRES    WAVE   SWELL
                       AIR SEA DIR/SP/G            HT/PER HT/DIR
                 (UTC) (F)     (DEG/KT/KT) (MB)    (FT/S) (FT/D)
BUOY 51001       NOT AVBL
BUOY 51101       2200   81 81  100/ 14/ 16 1017.5R   6/ 7   3/160
BUOY 51100       NOT AVBL
BUOY 51002       2200   82 82   70/ 17/ 21 1013.0F   8/ 9   5/120
BUOY 51003       2100   82 83   90/ 16/ 19 1014.7R   6/ 7   3
BUOY 51004       2100   81 81   50/ 16/ 17 1012.9    7/ 7   3/110
BARBERS PT BUOY  NOT AVBL
WAIMEA BAY BUOY  2200      81                N/A     4/ 6
KAILUA BAY BUOY  2200      81                N/A     5/ 6   2/100
LANAI BUOY       NOT AVBL
BARBERS PT 2     2200      82                N/A     3/14   2/180
PAUWELA MAUI     2200      80                N/A     5/ 8
HILO             NOT AVBL
KANEOHE BAY BUOY 2200      80                N/A     5/ 7
HANALEI KAUAI    2200      81                N/A     5/ 7
KAHULUI HARBOR   2200   81 82   30/ 17/ 20 1015.2F
HONOLULU HARBOR  2200   85 82   50/  4/  8 1015.4F
KILO NALU        NOT AVBL
HILO HARBOR      2200   81 78  360/  5/  6 1015.5F
MOKUOLOE         2200      84              1016.4S
NAWILIWILI       2200   82 84   60/ 15/ 18 1016.7F
WHOTS BUOY       NOT AVBL
BUOY 51028       NOT AVBL
$$

......................KEY........................................
  SKY/WX - SKY CONDITIONS/PRESENT WEATHER
  TMP    - TEMPERATURE IN FAHRENHEIT
  DWPT   - DEWPOINT IN FAHRENHEIT
  RH     - RELATIVE HUMIDITY IN PERCENT
  WIND   - DIRECTION AND SPEED /MPH FOR ISLANDS...KTS FOR BUOYS/
  PRES   - MEAN SEA LEVEL PRESSURE IN INCHES OF HG
  VSB    - VISIBILITY IN MILES
  HX     - HEAT INDEX
  WCI    - WIND CHILL INDEX
  VRB    - VARIABLE WIND DIRECTION
  N/A    - NOT AVAILABLE



USA.gov is the U.S. government's official web portal to all federal, state and local government web resources and services.